星链-36095(STARLINK-36095)

导读 | 豆包AI

STARLINK-36095是美国太空探索技术公司(SpaceX)发射的星链(Starlink)卫星,属于全球低轨卫星互联网星座的组成部分,于2025年12月2日发射入轨。该卫星运行在近地轨道,主要为全球提供高速低延迟宽带互联网服务,重点覆盖传统网络基础设施匮乏的偏远地区,同时也可支撑民用通信及商业服务需求,助力推进全球互联网普及,是星链星座扩容的重要一环。

基本信息
目录编号:
66871
目录名称:
STARLINK-36095
国际标识:
2025-281Z
轨道中心:
EARTH
卫星名称:
星链-36095
卫星全名:
星链-36095(STARLINK-36095)
卫星状态:
在轨 (已飞行123 天)
发射日期:
2025-12-02 UTC
国别 :
美国 (US)
星等 :
--
轨道信息
数据来源 国际轨道数据 AOE轨道数据
星历时间 2026-04-04T01:29:50+0800
11小时前
查看轨道信息
2026-04-02T08:00:00+0800
2天前
查看轨道信息
半长轴 6861.334km 6861.24km
偏心率 0.0001958 0.0001199
轨道倾角 43.001° 43.001°
近地点辐角 273.355° 283.375°
升交点赤经 202.175° 211.941°
平近点角 86.708° 276.999°
近地点 481.853km 482.28km
远地点 484.541km 483.926km
周期 94.270分钟 94.268分钟
每日圈数 15.275308 15.275621
详细信息
固有亮度:
5
最大亮度:
2.5
卫星平台:
Starlink V1.0
覆盖范围:
全球
运营商:
太空探索技术公司
运营商所在国:
美国
制造商(研发单位):
太空探索技术公司
制造商所在国:
美国
使用方式:
暂无
卫星简介
Starlink 计划是 SpaceX 推出的全球卫星互联网项目,通过发射低轨道卫星,为全球尤其是偏远地区提供高速、低延迟的互联网服务。自 2019 年起,Starlink 已部署数千颗卫星,旨在缩小全球数字鸿沟,推动互联网普及。该项目还为军事、航空等行业提供通信支持,带来广泛经济效益。
2D轨道图
3D轨道图
轨道高度分析图
轨道倾角分析图
轨道综合分析图
查看轨道综合分析图